Погода в Емелеве

Россия / Республика Марий Эл     56°08′27″N   46°23′09″E
темп.,
°C
ветер,
м/с
пор.,
м/с
влажн.,
%
обл.,
%
осадки,
мм/ч
давл.,
гПа
погр.,
м
20 июня, вс
вс2000:00+17з49910 0.0 1021138
03:00+17з35935 0.0 102280
06:00+20зсз35845 0.0 1022181
09:00+25зсз34645 0.0 1022583
12:00+28з34515 0.0 10211538
15:00+29юз44510 0.0 10211850
18:00+26юз59734 0.0 1020367
21:00+21зюз47865 0.0 1020102
21 июня, пн
пн2100:00+19зюз33880 0.0 102132
03:00+18зюз22880 0.0 102115
06:00+21зюз24810 0.0 1021152
09:00+26зюз34663 0.0 1021595
12:00+29зюз45530 0.0 10211634
15:00+30юз45533 0.0 10201627
18:00+27юз59720 0.0 1020349
21:00+22зюз38820 0.0 1021122
22 июня, вт
вт2200:00+20зюз22840 0.0 102127
03:00+19з22870 0.0 102214
06:00+22з23785 0.0 1022132
09:00+27з34635 0.0 1022560
12:00+30зюз234815 0.0 10221736
15:00+30юз555797 0.0 10211271
18:00+27юз48705 0.0 1020316
21:00+23зюз368167 0.1 102185
23 июня, ср
ср2300:00+21з228579 0.0 102129
03:00+20з228817 0.0 102211
06:00+23з23791 0.0 1022144
09:00+27з23626 0.0 1022544
12:00+30з23460 0.0 10211916
15:00+31ююз334670 0.0 10212007
18:00+26юз4872100 0.0 1020179
21:00+24зюз35771 0.0 102067
24 июня, чт
чт2400:00+21з228472 0.0 102016
03:00+21з22832 0.0 102017
06:00+23зсз238025 0.0 1020151
09:00+28сз34625 0.0 1020543
12:00+32сз244721 0.0 10191881
15:00+32ссз3448100 0.0 10182228
18:00+29ссз356052 0.0 1017103
21:00+25з2267100 0.0 101711